Location: Ash Shall?l al Awwal
(24.0167°N, 32.8667°E)
Time: 04:02:37
(UTC+00:00)

Cosmos 44 - Pass Details

Date: 02 March 2021
Orbit: 571 x 791 km, 65.1° (Epoch: 12 April)

Event Time Altitude Azimuth Distance (km) Brightness Sun altitude
Rises 16:14:06 0° 328° (NNW) 3,280 7.2 -5.9°
Reaches altitude 10° 16:16:36 10° 324° (NW) 2,340 6.5 -6.5°
Maximum altitude 16:21:50 52° 249° (WSW) 946 4.5 -7.6°
Drops below altitude 10° 16:26:51 10° 173° (S) 2,244 5.9 -8.8°
Sets 16:29:13 0° 168° (SSE) 3,132 6.6 -9.3°
